| time (UTC) | temp F | wind direction | speed MPH | gust MPH | rain 1hr in | rain 24hr in | rain mn in | humidity % | barometer mb |
| 20260901010015 | 93 | 138 | 4.0 | 7.0 | 0.00 | 0.00 | 0.00 | 35 | 988.0 |
| 20260901004504 | 94 | 134 | 4.0 | 9.0 | 0.00 | 0.00 | 0.00 | 34 | 988.0 |
| 20260901003003 | 95 | 142 | 5.0 | 9.0 | 0.00 | 0.00 | 0.00 | 33 | 988.0 |
| 20260901001503 | 96 | 126 | 7.0 | 11.0 | 0.00 | 0.00 | 0.00 | 33 | 987.9 |
| 20260901000001 | 96 | 134 | 5.0 | 11.0 | 0.00 | 0.00 | 0.00 | 33 | 987.8 |
| 20260831234501 | 97 | 98 | 5.0 | 11.0 | 0.00 | 0.00 | 0.00 | 34 | 987.8 |
| 20260831233043 | 97 | 136 | 6.0 | 12.0 | 0.00 | 0.00 | 0.00 | 35 | 987.9 |
| 20260831231548 | 96 | 144 | 3.0 | 10.0 | 0.00 | 0.00 | 0.00 | 35 | 987.9 |
| 20260831230028 | 96 | 140 | 8.0 | 15.0 | 0.00 | 0.00 | 0.00 | 35 | 987.9 |
| 20260831224525 | 98 | 141 | 6.0 | 14.0 | 0.00 | 0.00 | 0.00 | 35 | 988.0 |
| 20260831223015 | 99 | 130 | 7.0 | 15.0 | 0.00 | 0.00 | 0.00 | 35 | 988.0 |
| 20260831221511 | 98 | 209 | 5.0 | 17.0 | 0.00 | 0.00 | 0.00 | 35 | 988.2 |
| 20260831220047 | 98 | 119 | 5.0 | 11.0 | 0.00 | 0.00 | 0.00 | 35 | 988.2 |
| 20260831214546 | 98 | 183 | 7.0 | 11.0 | 0.00 | 0.00 | 0.00 | 36 | 988.4 |
| 20260831213040 | 97 | 202 | 9.0 | 13.0 | 0.00 | 0.00 | 0.00 | 36 | 988.5 |
| 20260831211532 | 98 | 197 | 6.0 | 11.0 | 0.00 | 0.00 | 0.00 | 34 | 988.8 |
| 20260831210029 | 97 | 178 | 9.0 | 14.0 | 0.00 | 0.00 | 0.00 | 37 | 988.9 |
| 20260831204530 | 95 | 222 | 3.0 | 9.0 | 0.00 | 0.00 | 0.00 | 39 | 989.2 |
| 20260831203026 | 96 | 142 | 7.0 | 12.0 | 0.00 | 0.00 | 0.00 | 37 | 989.5 |
| 20260831201534 | 97 | 195 | 9.0 | 17.0 | 0.00 | 0.00 | 0.00 | 37 | 989.8 |
| 20260831200022 | 98 | 137 | 8.0 | 14.0 | 0.00 | 0.00 | 0.00 | 36 | 989.9 |
| 20260831194519 | 96 | 264 | 6.0 | 15.0 | 0.00 | 0.00 | 0.00 | 40 | 990.0 |
| 20260831193100 | 95 | 202 | 7.0 | 19.0 | 0.00 | 0.00 | 0.00 | 42 | 990.2 |
| 20260831191602 | 95 | 155 | 9.0 | 15.0 | 0.00 | 0.00 | 0.00 | 41 | 990.4 |
| 20260831190042 | 95 | 160 | 10.0 | 18.0 | 0.00 | 0.00 | 0.00 | 43 | 990.7 |
| 20260831184543 | 95 | 190 | 5.0 | 16.0 | 0.00 | 0.00 | 0.00 | 43 | 990.9 |
| 20260831183020 | 95 | 163 | 5.0 | 14.0 | 0.00 | 0.00 | 0.00 | 44 | 991.0 |
| 20260831181517 | 93 | 145 | 0.0 | 10.0 | 0.00 | 0.00 | 0.00 | 49 | 991.1 |
| 20260831180054 | 92 | 192 | 6.0 | 10.0 | 0.00 | 0.00 | 0.00 | 50 | 991.3 |
| 20260831174555 | 92 | 167 | 6.0 | 12.0 | 0.00 | 0.00 | 0.00 | 50 | 991.7 |
| 20260831173034 | 91 | 152 | 6.0 | 14.0 | 0.00 | 0.00 | 0.00 | 53 | 991.8 |
| 20260831171536 | 90 | 142 | 6.0 | 12.0 | 0.00 | 0.00 | 0.00 | 56 | 991.9 |
| 20260831170015 | 91 | 188 | 5.0 | 14.0 | 0.00 | 0.00 | 0.00 | 54 | 992.1 |
| 20260831164511 | 90 | 169 | 8.0 | 14.0 | 0.00 | 0.00 | 0.00 | 58 | 992.1 |
| 20260831163053 | 89 | 221 | 6.0 | 11.0 | 0.00 | 0.00 | 0.00 | 60 | 992.0 |
| 20260831161552 | 88 | 175 | 5.0 | 12.0 | 0.00 | 0.00 | 0.00 | 59 | 992.1 |
| 20260831160049 | 88 | 236 | 6.0 | 14.0 | 0.00 | 0.00 | 0.00 | 63 | 992.0 |
| 20260831154552 | 87 | 197 | 8.0 | 13.0 | 0.00 | 0.00 | 0.00 | 63 | 991.9 |
| 20260831153044 | 86 | 223 | 8.0 | 10.0 | 0.00 | 0.00 | 0.00 | 66 | 991.9 |
| 20260831151539 | 85 | 256 | 6.0 | 10.0 | 0.00 | 0.00 | 0.00 | 66 | 991.8 |
| 20260831150036 | 84 | 227 | 5.0 | 9.0 | 0.00 | 0.00 | 0.00 | 66 | 991.7 |
| 20260831144539 | 83 | 201 | 5.0 | 10.0 | 0.00 | 0.00 | 0.00 | 64 | 991.7 |
| 20260831143030 | 82 | 219 | 4.0 | 8.0 | 0.00 | 0.00 | 0.00 | 60 | 991.7 |
| 20260831141525 | 81 | 227 | 5.0 | 9.0 | 0.00 | 0.00 | 0.00 | 49 | 991.6 |
| 20260831140023 | 80 | 252 | 3.0 | 8.0 | 0.00 | 0.00 | 0.00 | 41 | 991.5 |
| 20260831134509 | 79 | 213 | 3.0 | 5.0 | 0.00 | 0.00 | 0.00 | 36 | 991.5 |
| 20260831133008 | 79 | 210 | 1.0 | 4.0 | 0.00 | 0.00 | 0.00 | 34 | 991.4 |
| 20260831131505 | 78 | 217 | 0.0 | 0.0 | 0.00 | 0.00 | 0.00 | 29 | 991.2 |
| 20260831130106 | 76 | 217 | 0.0 | 0.0 | 0.00 | 0.00 | 0.00 | 27 | 991.0 |
| 20260831124608 | 76 | 217 | 0.0 | 0.0 | 0.00 | 0.00 | 0.00 | 28 | 990.8 |
| 20260831123058 | 76 | 217 | 0.0 | 0.0 | 0.00 | 0.00 | 0.00 | 28 | 990.8 |
| 20260831121555 | 76 | 217 | 1.0 | 3.0 | 0.00 | 0.00 | 0.00 | 31 | 990.7 |
| 20260831120054 | 76 | 217 | 2.0 | 4.0 | 0.00 | 0.00 | 0.00 | 31 | 990.7 |
| 20260831114549 | 76 | 217 | 4.0 | 6.0 | 0.00 | 0.00 | 0.00 | 31 | 990.6 |
| 20260831113038 | 76 | 207 | 3.0 | 5.0 | 0.00 | 0.00 | 0.00 | 34 | 990.5 |
| 20260831111516 | 76 | 207 | 3.0 | 5.0 | 0.00 | 0.00 | 0.00 | 35 | 990.4 |
| 20260831110019 | 76 | 207 | 3.0 | 5.0 | 0.00 | 0.00 | 0.00 | 38 | 990.2 |
| 20260831104503 | 77 | 221 | 3.0 | 5.0 | 0.00 | 0.00 | 0.00 | 38 | 990.3 |
| 20260831103101 | 77 | 223 | 3.0 | 7.0 | 0.00 | 0.00 | 0.00 | 40 | 990.2 |
| 20260831101600 | 77 | 226 | 6.0 | 10.0 | 0.00 | 0.00 | 0.00 | 40 | 990.4 |
| 20260831100118 | 77 | 215 | 4.0 | 8.0 | 0.00 | 0.00 | 0.00 | 44 | 990.5 |
| 20260831094554 | 76 | 220 | 4.0 | 6.0 | 0.00 | 0.00 | 0.00 | 47 | 990.3 |
| 20260831093051 | 77 | 221 | 5.0 | 7.0 | 0.00 | 0.00 | 0.00 | 50 | 990.2 |
| 20260831091553 | 77 | 211 | 5.0 | 8.0 | 0.00 | 0.00 | 0.00 | 53 | 990.1 |
| 20260831090048 | 77 | 207 | 4.0 | 8.0 | 0.00 | 0.00 | 0.00 | 56 | 990.2 |
| 20260831084527 | 77 | 219 | 4.0 | 7.0 | 0.00 | 0.00 | 0.00 | 59 | 990.2 |
| 20260831083027 | 77 | 213 | 4.0 | 8.0 | 0.00 | 0.00 | 0.00 | 62 | 990.3 |
| 20260831081509 | 78 | 213 | 4.0 | 8.0 | 0.00 | 0.00 | 0.00 | 64 | 990.2 |
| 20260831080009 | 78 | 205 | 5.0 | 8.0 | 0.00 | 0.00 | 0.00 | 65 | 990.2 |
| 20260831074603 | 78 | 191 | 5.0 | 7.0 | 0.00 | 0.00 | 0.00 | 67 | 990.3 |
| 20260831073055 | 79 | 200 | 3.0 | 6.0 | 0.00 | 0.00 | 0.00 | 67 | 990.3 |
| 20260831071606 | 79 | 197 | 3.0 | 5.0 | 0.00 | 0.00 | 0.00 | 68 | 990.4 |
| 20260831070054 | 80 | 198 | 2.0 | 6.0 | 0.00 | 0.00 | 0.00 | 68 | 990.4 |
| 20260831064554 | 80 | 198 | 3.0 | 6.0 | 0.00 | 0.00 | 0.00 | 68 | 990.4 |
| 20260831063058 | 81 | 200 | 5.0 | 8.0 | 0.00 | 0.00 | 0.00 | 68 | 990.5 |
| 20260831061553 | 81 | 205 | 5.0 | 8.0 | 0.00 | 0.00 | 0.00 | 68 | 990.3 |
| 20260831060101 | 82 | 197 | 5.0 | 8.0 | 0.00 | 0.00 | 0.00 | 67 | 990.2 |
| 20260831054538 | 83 | 201 | 5.0 | 8.0 | 0.00 | 0.00 | 0.00 | 67 | 990.2 |
| 20260831053038 | 83 | 192 | 5.0 | 9.0 | 0.00 | 0.00 | 0.00 | 66 | 990.2 |
| 20260831051541 | 83 | 207 | 6.0 | 10.0 | 0.00 | 0.00 | 0.00 | 66 | 990.1 |
| 20260831050048 | 84 | 203 | 7.0 | 9.0 | 0.00 | 0.00 | 0.00 | 65 | 990.0 |
| 20260831044537 | 84 | 199 | 7.0 | 9.0 | 0.00 | 0.00 | 0.00 | 64 | 989.9 |
| 20260831043043 | 85 | 192 | 8.0 | 10.0 | 0.00 | 0.00 | 0.00 | 63 | 989.8 |
| 20260831041551 | 85 | 195 | 7.0 | 10.0 | 0.00 | 0.00 | 0.00 | 63 | 989.8 |
| 20260831040035 | 86 | 192 | 8.0 | 12.0 | 0.00 | 0.00 | 0.00 | 61 | 989.7 |
| 20260831034517 | 86 | 200 | 9.0 | 12.0 | 0.00 | 0.00 | 0.00 | 61 | 989.6 |
| 20260831033019 | 87 | 205 | 7.0 | 11.0 | 0.00 | 0.00 | 0.00 | 60 | 989.3 |
| 20260831031600 | 87 | 209 | 8.0 | 11.0 | 0.00 | 0.00 | 0.00 | 59 | 989.3 |
| 20260831030104 | 88 | 210 | 9.0 | 13.0 | 0.00 | 0.00 | 0.00 | 57 | 989.1 |
| 20260831024541 | 88 | 192 | 9.0 | 13.0 | 0.00 | 0.00 | 0.00 | 55 | 988.8 |
| 20260831023040 | 89 | 182 | 8.0 | 13.0 | 0.00 | 0.00 | 0.00 | 50 | 988.6 |
| 20260831021524 | 89 | 150 | 6.0 | 9.0 | 0.00 | 0.00 | 0.00 | 49 | 988.3 |
| 20260831020023 | 90 | 148 | 4.0 | 8.0 | 0.00 | 0.00 | 0.00 | 48 | 988.2 |
| 20260831014506 | 90 | 148 | 5.0 | 9.0 | 0.00 | 0.00 | 0.00 | 46 | 987.9 |
| 20260831013004 | 91 | 143 | 3.0 | 8.0 | 0.00 | 0.00 | 0.00 | 42 | 987.8 |
| 20260831011547 | 92 | 148 | 4.0 | 8.0 | 0.00 | 0.00 | 0.00 | 41 | 987.6 |